Weather History for Pompano Beach, FL

Change the Weather History Date:

Thursday, November 22, 2012

  Actual Average Record
Temperature  
Mean Temperature 64 °F -  
Max Temperature 73 °F 80 °F 88 °F (1993)
Min Temperature 55 °F 63 °F 39 °F (2006)
Degree Days  
Heating Degree Days 1    
Growing Degree Days 14 (Base 50)    
Moisture  
Dew Point 50 °F    
Average Humidity 63    
Maximum Humidity 81    
Minimum Humidity 43    
Precipitation  
Precipitation 0.00 in - - ()
Sea Level Pressure  
Sea Level Pressure 30.05 in    
Wind  
Wind Speed 14 mph (NNW)    
Max Wind Speed 21 mph    
Max Gust Speed 26 mph    
Visibility 10 miles    
Events      
Averages and records for this station are not official NWS values.
T = Trace of Precipitation, MM = Missing Value Source: NWS Daily Summary

Daily Weather History Graph

Daily Weather History Graph

Search for Another Location

Airport:

Trip Planner

Search our weather history database for the weather conditions in past years. The results will help you decide how hot, cold, wet, or windy it might be!

Date:

Astronomy

Nov. 22, 2012 Rise Set
Actual Time 6:44 AM EST 5:28 PM EST
Civil Twilight 6:19 AM EST 5:53 PM EST
Nautical Twilight 5:51 AM EST 6:21 PM EST
Astronomical Twilight 5:23 AM EST 6:49 PM EST
Moon 1:47 PM EST (11/22) 1:31 AM EST (11/22)
Length of Visible Light 11h 33m
Length of Day
10h 44m
Waxing Gibbous, 71% of the Moon is Illuminated
Nov 22
Waxing Gibbous
Nov 28
Full
Dec 6
Last Quarter
Dec 13
New
Dec 20
First Quarter

Hourly Weather History & Observations

Time (EST) Temp. Dew Point Humidity Pressure Visibility Wind Dir Wind Speed Gust Speed Precip Events Conditions
12:53 AM 59.0 °F 53.1 °F 81% 30.03 in 10.0 mi NNW 10.4 mph - N/A   Clear
1:53 AM 57.9 °F 48.9 °F 72% 30.01 in 10.0 mi NW 13.8 mph - N/A   Clear
2:53 AM 57.9 °F 46.9 °F 67% 30.01 in 10.0 mi NNW 12.7 mph - N/A   Clear
3:53 AM 57.9 °F 48.0 °F 70% 30.01 in 10.0 mi NNW 13.8 mph - N/A   Clear
4:53 AM 57.0 °F 48.9 °F 74% 30.01 in 10.0 mi NW 13.8 mph - N/A   Clear
5:53 AM 55.9 °F 48.9 °F 77% 30.02 in 10.0 mi NNW 11.5 mph - N/A   Clear
6:53 AM 55.9 °F 48.9 °F 77% 30.04 in 10.0 mi NW 15.0 mph - N/A   Clear
7:53 AM 57.9 °F 50.0 °F 75% 30.06 in 10.0 mi NW 13.8 mph - N/A   Clear
8:53 AM 62.1 °F 50.0 °F 65% 30.08 in 10.0 mi NW 17.3 mph 24.2 mph N/A   Clear
9:53 AM 64.9 °F 52.0 °F 63% 30.08 in 10.0 mi NW 16.1 mph - N/A   Clear
10:53 AM 69.1 °F 53.1 °F 57% 30.07 in 10.0 mi NW 17.3 mph 25.3 mph N/A   Clear
11:53 AM 72.0 °F 54.0 °F 53% 30.05 in 10.0 mi NNW 16.1 mph - N/A   Clear
12:53 PM 73.9 °F 52.0 °F 46% 30.03 in 10.0 mi NNW 18.4 mph 23.0 mph N/A   Clear
1:53 PM 73.9 °F 51.1 °F 45% 30.01 in 10.0 mi NNW 16.1 mph 23.0 mph N/A   Clear
2:53 PM 73.9 °F 51.1 °F 45% 30.01 in 10.0 mi NNW 20.7 mph 26.5 mph N/A   Partly Cloudy
3:53 PM 72.0 °F 48.0 °F 43% 30.02 in 10.0 mi North 17.3 mph 21.9 mph N/A   Partly Cloudy
4:53 PM 70.0 °F 48.9 °F 47% 30.05 in 10.0 mi North 11.5 mph 19.6 mph N/A   Partly Cloudy
5:53 PM 66.0 °F 50.0 °F 56% 30.07 in 10.0 mi NNW 10.4 mph - N/A   Clear
6:53 PM 64.0 °F 50.0 °F 60% 30.09 in 10.0 mi NNW 11.5 mph - N/A   Clear
7:53 PM 62.1 °F 48.0 °F 60% 30.11 in 10.0 mi NNW 15.0 mph - N/A   Clear
8:53 PM 60.1 °F 46.9 °F 62% 30.11 in 10.0 mi NW 15.0 mph 23.0 mph N/A   Clear
9:53 PM 59.0 °F 48.0 °F 67% 30.12 in 10.0 mi NW 13.8 mph - N/A   Clear
10:53 PM 57.9 °F 48.9 °F 72% 30.11 in 10.0 mi NW 10.4 mph - N/A   Clear
11:53 PM 57.0 °F 48.9 °F 74% 30.10 in 10.0 mi NNW 11.5 mph - N/A   Clear